Location: Sternwarte auf dem Internationalen Platz Vogelsang IP
(50.5721°N, 6.4398°E)
Time: 17:32:24
(UTC+01:00)

Transit 2A Rocket - Pass Details

Date: 16 December 2025
Orbit: 581 x 903 km, 66.7° (Epoch: 16 January)

Event Time Altitude Azimuth Distance (km) Brightness Sun altitude
Rises 11:02:42 0° 272° (W) 3,425 8.1 13.6°
Reaches altitude 10° 11:05:42 10° 287° (WNW) 2,530 7.4 13.8°
Maximum altitude 11:10:17 23° 338° (NNW) 1,827 6.5 14.0°
Drops below altitude 10° 11:14:59 10° 29° (NNE) 2,591 7.4 14.3°
Sets 11:18:07 0° 43° (NE) 3,530 8.1 14.4°
